Regional Weather Roundup
Issued by NWS Sioux Falls, SD

Home | Current Version | Previous Version | Text Only | Print | Product List | Glossary On
Versions: 1 2 3 4 5 6 7 8 9 10 11 12 13 14 15 16 17 18 19 20 21 22 23 24 25 26 27 28 29 30 31 32 33 34 35 36 37 38 39 40 41 42 43 44 45 46 47 48 49 50
000
ASUS43 KFSD 230210
RWRFSD

WEATHER ROUNDUP FOR SE SOUTH DAKOTA/SW MINNESOTA/NW IOWA
NATIONAL WEATHER SERVICE SIOUX FALLS SD
900 PM CDT WED OCT 22 2014

NOTE: "FAIR" INDICATES FEW OR NO CLOUDS BELOW 12,000 FEET WITH NO
SIGNIFICANT WEATHER AND OR OBSTRUCTIONS TO VISIBILITY.


SDZ038>040-050-052>070-230300-
SOUTHEAST SOUTH DAKOTA

CITY           SKY/WX    TMP DP  RH WIND       PRES   REMARKS
CHAMBERLAIN    CLEAR     45  43  95 CALM      30.00S
HURON          PTCLDY    52  50  93 SW7       29.98S
MADISON        CLOUDY    54  54 100 W7        30.00R
MITCHELL       PTCLDY    53  52  96 SW6       30.01R
SIOUX FALLS    CLOUDY    56  55  97 VRB5      30.01R
WINNER         FAIR      55  40  56 SW6       30.02R
YANKTON        CLOUDY    54  52  94 SW5       30.03R
$$

MNZ071-072-080-081-089-090-097-098-230300-
SOUTHWEST MINNESOTA

CITY           SKY/WX    TMP DP  RH WIND       PRES   REMARKS
FAIRMONT       CLOUDY    57  43  58 S15G21    30.06R
JACKSON        RAIN      61  46  59 S14G21    30.03F
LUVERNE        CLOUDY    59  57  94 SW9       30.01R
MARSHALL       CLOUDY    59  55  88 SW6       29.96S
MONTEVIDEO     RAIN      59  57  94 W5        29.96R
PIPESTONE      CLOUDY    57  55  94 W9        30.00R
REDWOOD FALLS  LGT RAIN  61  49  64 S16       29.98R
TRACY          CLOUDY    60  58  94 S9        29.98S
WINDOM         DRIZZLE   61  48  63 S12G21    30.00S
WORTHINGTON    CLOUDY    57  55  94 S12       30.02S
$$

IAZ001>003-012>014-020>022-031-032-NEZ013-014-SDZ071-230300-
NORTHWEST IOWA

CITY           SKY/WX    TMP DP  RH WIND       PRES   REMARKS
CHEROKEE       RAIN      58  58 100 SE7       30.05R
DENISON        RAIN      59  59 100 CALM      30.08R
ESTHERVILLE    CLOUDY    59  47  64 S18       30.05R
LE MARS          N/A     59  59 100 CALM      30.04R
ORANGE CITY    CLOUDY    61  57  88 S5        30.03R
SHELDON        CLOUDY    57  57 100 S9        30.01S
SIOUX CITY     CLOUDY    60  58  92 SE5       30.03S
SPENCER        RAIN      59  57  93 SE9       30.04F FOG
STORM LAKE     LGT RAIN  59  57  94 S6        30.08S
$$

ABBREVIATIONS USED IN REMARKS
   TC - TEMPERATURE IN CELSIUS
  WCI - WIND CHILL INDEX
   HX - HEAT INDEX
  VSB - VISIBILITY




USA.gov is the U.S. government's official web portal to all federal, state and local government web resources and services.